CZ-2D DEB, 44605

Orbit data source: Space-Track

CZ-2D DEB, 44605 is space debris in SSO originally from a launch on Fri, 11 Nov 2016 UTC launched from the Jiuquan Satellite Launch Center, China (JSC). Debris objects in space refer to the collection of defunct objects orbiting the Earth. Examples of debris include non-operational satellites, rocket bodies, and fragments generated from explosions, collisions, or faulty payload assembly.

Loading next visibility...
Identifier
44605, 2016-068E
Orbit
SSO
Country
Flag of CNCN / PRC
Related business
Manufacturer
Unknown
Mission
Spacecraft
Bus & Motor
Unknown
Mass
Unknown
Launch date (UTC)
2016-11-11 (9 years ago)
Launch vehicle
Unknown
Launch site
Jiuquan Satellite Launch Center, China (JSC)
Object type
Payload
Rocket body
Debris
Shape & HBR
Unknown shape, 0.1 m
Radar Cross Section
Small (<0.1 m²)

Expand to show TLE details & history
Last TLE update: 2 days ago

TLE from 2 days ago
0 CZ-2D DEB
1 44605U 16068E   25305.96408803  .00000804  00000-0  56211-3 0  9993
2 44605  98.4428  25.0891 0229846 162.8313 198.0788 13.88970060449602
Epoch: 2025-11-01T23:08Z
TLE epoch observation values (Epoch: 2025-11-01T23:08:17.205Z)
Latitude
-0.0001°
Longitude
-3.46919°
Altitude
1,095.248 km
Speed
7.224 km/s
True Right ascension
01h 40m 21s
True Declination
0° 00' 00"
Sunlit
Object was in full shadow at epoch
Visualization orbit readout
Latitude
Unknown
Longitude
Unknown
Altitude
Unknown
Speed
Unknown
Apparent Right ascension
Unknown
Apparent Declination
Unknown
Sunlit
N/A
Visualization observer readout
Local Sidereal Time
00:47:08
Azimuth
Unknown
Elevation
Unknown
Doppler factor
Unknown
Orbital elements
Apogee altitude
1,097.389 km
Perigee altitude
761.467 km
Semi-major axis
7,307.565 km
Eccentricity
0.02298
Inclination
98.4428°
RAAN
25.0891°
Arg. of periapsis
162.8313°
True anomaly
197.28323°
Mean anomaly
198.0788°
Eccentric anomaly
197.67888°
Mean motion
3.47443 °/min
Orbital period
103.61 mins
BSTAR
0.00056211
Loading maneuver chart data...
Computing Atmospheric mass density...
Loading historical data...
Loading historical data...
Loading historical data...
Loading historical data...
Loading historical data...
Loading historical data...
Loading historical data...

Documentation

Showing up to 5 results
|